VPCOH OOMS-LRCL

Flight info

Callsign VPCOH
Flight time N/A
Altitude 36000
Route MCT T508 SOLUD P574 GISMO/N0472F340 P574 NORGA/N0470F350 R401 GABKO/N0468F360 M317 ROTAL P574 SYZ P550 RASLA/N0462F380 P550 DASIS UL746 INB/N0460F400 UL746 ODERO L621 REVDA DCT RIPGA DCT DOKUD
Aircraft B738/M-SDE2E3FGHIRWXY/LB1

Departure

Time 2026-05-06 15:06
Airport Muscat International Airport (OOMS)

Arrival

Time N/A
Airport Avram Iancu Cluj International Airport (LRCL)
Time Latitude Longitude Altitude Speed Heading
2026-05-06 14:14 23.60452 58.28941 44 ft 0 kts 85°
2026-05-06 14:49 23.60452 58.28939 44 ft 2 kts 85°
2026-05-06 14:49 23.60451 58.28926 44 ft 2 kts 85°
2026-05-06 14:50 23.60450 58.28912 44 ft 2 kts 85°
2026-05-06 14:50 23.60448 58.28896 44 ft 2 kts 85°
2026-05-06 14:50 23.60447 58.28881 44 ft 2 kts 85°
2026-05-06 14:50 23.60446 58.28865 43 ft 2 kts 83°
2026-05-06 14:51 23.60442 58.28854 40 ft 2 kts 15°
2026-05-06 14:51 23.60431 58.28854 43 ft 0 kts 354°
2026-05-06 14:56 23.60473 58.28849 44 ft 13 kts 355°
2026-05-06 14:56 23.60549 58.28839 44 ft 10 kts 338°
2026-05-06 14:56 23.60569 58.28772 44 ft 10 kts 267°
2026-05-06 14:57 23.60562 58.28685 44 ft 12 kts 265°
2026-05-06 14:57 23.60555 58.28595 44 ft 12 kts 265°
2026-05-06 14:57 23.60548 58.28507 44 ft 11 kts 265°
2026-05-06 14:57 23.60541 58.28422 44 ft 11 kts 265°
2026-05-06 14:58 23.60534 58.28340 44 ft 11 kts 265°
2026-05-06 14:58 23.60527 58.28259 44 ft 10 kts 265°
2026-05-06 14:58 23.60519 58.28154 44 ft 17 kts 265°
2026-05-06 14:58 23.60509 58.28026 44 ft 17 kts 265°
2026-05-06 14:59 23.60498 58.27901 43 ft 16 kts 265°
2026-05-06 14:59 23.60489 58.27781 44 ft 16 kts 265°
2026-05-06 14:59 23.60479 58.27666 44 ft 15 kts 264°
2026-05-06 14:59 23.60470 58.27555 44 ft 14 kts 265°
2026-05-06 15:00 23.60462 58.27451 44 ft 14 kts 265°
2026-05-06 15:00 23.60454 58.27350 44 ft 13 kts 265°
2026-05-06 15:00 23.60446 58.27253 44 ft 13 kts 265°
2026-05-06 15:00 23.60439 58.27158 44 ft 12 kts 265°
2026-05-06 15:01 23.60431 58.27066 44 ft 12 kts 265°
2026-05-06 15:01 23.60423 58.26976 44 ft 12 kts 264°
2026-05-06 15:01 23.60415 58.26888 42 ft 11 kts 264°
2026-05-06 15:01 23.60409 58.26803 44 ft 11 kts 265°
2026-05-06 15:02 23.60402 58.26720 42 ft 11 kts 264°
2026-05-06 15:02 23.60396 58.26640 44 ft 11 kts 265°
2026-05-06 15:02 23.60388 58.26543 44 ft 14 kts 265°
2026-05-06 15:02 23.60380 58.26440 44 ft 13 kts 265°
2026-05-06 15:03 23.60373 58.26342 44 ft 13 kts 265°
2026-05-06 15:03 23.60365 58.26246 44 ft 12 kts 265°
2026-05-06 15:03 23.60358 58.26152 43 ft 12 kts 265°
2026-05-06 15:03 23.60351 58.26062 43 ft 12 kts 265°
2026-05-06 15:04 23.60344 58.25974 42 ft 12 kts 265°
2026-05-06 15:04 23.60337 58.25888 44 ft 11 kts 265°
2026-05-06 15:04 23.60370 58.25826 44 ft 11 kts 349°
2026-05-06 15:04 23.60446 58.25818 43 ft 11 kts 355°
2026-05-06 15:05 23.60519 58.25812 42 ft 10 kts 356°
2026-05-06 15:05 23.60589 58.25818 42 ft 10 kts 34°
2026-05-06 15:05 23.60601 58.25883 41 ft 9 kts 92°
2026-05-06 15:05 23.60607 58.25970 41 ft 24 kts 86°
2026-05-06 15:06 23.60644 58.26447 43 ft 101 kts 84°
2026-05-06 15:06 23.60725 58.27442 46 ft 164 kts 84°
2026-05-06 15:06 23.60857 58.28795 568 ft 181 kts 83°
2026-05-06 15:06 23.60985 58.30167 1444 ft 184 kts 84°
2026-05-06 15:07 23.61114 58.31610 1994 ft 203 kts 85°
2026-05-06 15:07 23.61264 58.33245 2186 ft 229 kts 84°
2026-05-06 15:07 23.61431 58.35050 2400 ft 252 kts 85°
2026-05-06 15:07 23.61611 58.37006 2886 ft 265 kts 84°
2026-05-06 15:08 23.61841 58.38976 3695 ft 266 kts 74°
2026-05-06 15:08 23.62734 58.40739 4468 ft 271 kts 47°
2026-05-06 15:08 23.64313 58.41873 5228 ft 276 kts 19°
2026-05-06 15:08 23.66219 58.42189 6008 ft 281 kts 358°
2026-05-06 15:09 23.68084 58.41551 6709 ft 286 kts 325°
2026-05-06 15:09 23.69436 58.39976 7472 ft 288 kts 298°
2026-05-06 15:09 23.70073 58.37908 8251 ft 289 kts 275°
2026-05-06 15:09 23.70148 58.35725 9077 ft 289 kts 268°
2026-05-06 15:10 23.70110 58.33517 9863 ft 292 kts 267°
2026-05-06 15:10 23.70051 58.31301 10454 ft 302 kts 267°
2026-05-06 15:10 23.69990 58.28912 10634 ft 327 kts 268°
2026-05-06 15:10 23.69933 58.26346 10808 ft 349 kts 268°
2026-05-06 15:11 23.69882 58.23619 10983 ft 368 kts 268°
2026-05-06 15:11 23.69836 58.20785 11404 ft 377 kts 269°
2026-05-06 15:11 23.69794 58.17911 12025 ft 380 kts 269°
2026-05-06 15:11 23.69752 58.15009 12624 ft 384 kts 269°
2026-05-06 15:12 23.69711 58.12073 13173 ft 389 kts 270°
2026-05-06 15:12 23.69669 58.09099 13710 ft 394 kts 270°
2026-05-06 15:12 23.69626 58.06137 14231 ft 397 kts 270°
2026-05-06 15:12 23.69581 58.03077 14781 ft 400 kts 270°
2026-05-06 15:13 23.69536 58.00031 15291 ft 403 kts 270°
2026-05-06 15:13 23.69489 57.96962 15806 ft 406 kts 270°
2026-05-06 15:13 23.69714 57.93928 16294 ft 408 kts 284°
2026-05-06 15:13 23.70614 57.90993 16817 ft 408 kts 297°
2026-05-06 15:14 23.72105 57.88359 17324 ft 408 kts 309°
2026-05-06 15:14 23.73874 57.85919 17804 ft 411 kts 310°
2026-05-06 15:14 23.75683 57.83480 18262 ft 414 kts 310°
2026-05-06 15:14 23.77504 57.81024 18694 ft 416 kts 310°
2026-05-06 15:15 23.79326 57.78545 19118 ft 418 kts 309°
2026-05-06 15:15 23.81124 57.76077 19526 ft 421 kts 309°
2026-05-06 15:15 23.82944 57.73563 19932 ft 423 kts 309°
2026-05-06 15:15 23.84768 57.71033 20326 ft 425 kts 309°
2026-05-06 15:16 23.86603 57.68482 20722 ft 427 kts 308°
2026-05-06 15:16 23.88446 57.65918 21107 ft 429 kts 308°
2026-05-06 15:16 23.90271 57.63377 21486 ft 431 kts 308°
2026-05-06 15:16 23.92126 57.60795 21868 ft 432 kts 308°
2026-05-06 15:17 23.93990 57.58198 22237 ft 434 kts 308°
2026-05-06 15:17 23.95859 57.55594 22607 ft 436 kts 308°
2026-05-06 15:17 23.97731 57.52984 22931 ft 438 kts 308°
2026-05-06 15:17 23.99622 57.50349 23265 ft 440 kts 308°
2026-05-06 15:18 24.01509 57.47715 23562 ft 441 kts 307°
2026-05-06 15:18 24.03411 57.45061 23832 ft 443 kts 307°
2026-05-06 15:18 24.05289 57.42438 24107 ft 444 kts 307°
2026-05-06 15:18 24.07196 57.39772 24375 ft 445 kts 307°
2026-05-06 15:19 24.09112 57.37093 24645 ft 446 kts 307°
2026-05-06 15:19 24.11028 57.34411 24911 ft 447 kts 307°
2026-05-06 15:19 24.12948 57.31722 25169 ft 449 kts 307°
2026-05-06 15:19 24.14876 57.29021 25419 ft 450 kts 307°
2026-05-06 15:20 24.16808 57.26313 25679 ft 451 kts 307°
2026-05-06 15:20 24.18724 57.23625 25922 ft 452 kts 307°
2026-05-06 15:20 24.20663 57.20903 26154 ft 453 kts 307°
2026-05-06 15:20 24.22606 57.18176 26394 ft 455 kts 307°
2026-05-06 15:21 24.24558 57.15434 26618 ft 456 kts 307°
2026-05-06 15:21 24.26512 57.12686 26847 ft 457 kts 306°
2026-05-06 15:21 24.28468 57.09935 27051 ft 458 kts 306°
2026-05-06 15:21 24.30431 57.07172 27273 ft 460 kts 306°
2026-05-06 15:22 24.32398 57.04403 27485 ft 461 kts 306°
2026-05-06 15:22 24.34349 57.01654 27688 ft 462 kts 306°
2026-05-06 15:22 24.36332 56.98859 27887 ft 463 kts 306°
2026-05-06 15:22 24.38308 56.96071 28068 ft 464 kts 306°
2026-05-06 15:23 24.40295 56.93267 28300 ft 464 kts 306°
2026-05-06 15:23 24.42273 56.90475 28599 ft 463 kts 306°
2026-05-06 15:23 24.44249 56.87682 28951 ft 461 kts 306°
2026-05-06 15:23 24.46208 56.84914 29276 ft 459 kts 306°
2026-05-06 15:24 24.48138 56.82183 29570 ft 458 kts 306°
2026-05-06 15:24 24.50092 56.79417 29857 ft 458 kts 306°
2026-05-06 15:24 24.52042 56.76655 30138 ft 456 kts 305°
2026-05-06 15:24 24.53980 56.73910 30444 ft 454 kts 305°
2026-05-06 15:25 24.55920 56.71164 30743 ft 453 kts 305°
2026-05-06 15:25 24.57849 56.68438 31028 ft 452 kts 305°
2026-05-06 15:25 24.59778 56.65712 31321 ft 450 kts 305°
2026-05-06 15:25 24.61695 56.62999 31644 ft 448 kts 305°
2026-05-06 15:26 24.63606 56.60294 31969 ft 447 kts 305°
2026-05-06 15:26 24.65485 56.57631 32289 ft 445 kts 305°
2026-05-06 15:26 24.67379 56.54945 32593 ft 444 kts 305°
2026-05-06 15:26 24.69272 56.52259 32908 ft 443 kts 305°
2026-05-06 15:27 24.71153 56.49588 33246 ft 441 kts 305°
2026-05-06 15:27 24.73026 56.46926 33570 ft 439 kts 305°
2026-05-06 15:27 24.74897 56.44263 33876 ft 438 kts 305°
2026-05-06 15:27 24.76758 56.41615 34118 ft 438 kts 305°
2026-05-06 15:28 24.78621 56.38962 34315 ft 438 kts 305°
2026-05-06 15:28 24.80456 56.36330 34516 ft 438 kts 304°
2026-05-06 15:28 24.82271 56.33647 34746 ft 437 kts 304°
2026-05-06 15:28 24.84075 56.30952 34966 ft 437 kts 304°
2026-05-06 15:29 24.85883 56.28259 35168 ft 437 kts 304°
2026-05-06 15:29 24.87681 56.25564 35387 ft 436 kts 302°
2026-05-06 15:29 24.89255 56.22722 35605 ft 434 kts 297°
2026-05-06 15:29 24.90734 56.19816 35792 ft 434 kts 297°
2026-05-06 15:30 24.92211 56.16886 35779 ft 437 kts 297°
2026-05-06 15:30 24.95180 56.11058 35793 ft 434 kts 297°
2026-05-06 15:31 24.98138 56.05337 35797 ft 430 kts 298°
2026-05-06 15:31 25.00975 56.00824 35785 ft 433 kts 312°
2026-05-06 15:32 25.06093 55.97229 35809 ft 443 kts 334°
2026-05-06 15:32 25.09068 55.96245 35780 ft 451 kts 346°
2026-05-06 15:32 25.15361 55.95603 35799 ft 456 kts 351°
2026-05-06 15:33 25.21666 55.95063 35792 ft 457 kts 349°
2026-05-06 15:33 25.27973 55.94247 35797 ft 456 kts 345°
2026-05-06 15:34 25.34245 55.93048 35788 ft 457 kts 345°
2026-05-06 15:34 25.40538 55.91892 35785 ft 459 kts 345°
2026-05-06 15:35 25.46821 55.90761 35782 ft 461 kts 345°
2026-05-06 15:35 25.53159 55.89618 35785 ft 461 kts 345°
2026-05-06 15:36 25.59496 55.88471 35787 ft 461 kts 345°
2026-05-06 15:36 25.65798 55.87327 35788 ft 460 kts 345°
2026-05-06 15:37 25.72112 55.86180 35787 ft 459 kts 345°
2026-05-06 15:37 25.78425 55.85032 35783 ft 458 kts 345°
2026-05-06 15:38 25.84710 55.83889 35784 ft 457 kts 345°
2026-05-06 15:38 25.90952 55.82751 35784 ft 456 kts 345°
2026-05-06 15:39 25.97228 55.81606 35789 ft 455 kts 345°
2026-05-06 15:39 26.03455 55.80469 35790 ft 455 kts 345°
2026-05-06 15:40 26.09746 55.79525 35790 ft 459 kts 349°
2026-05-06 15:40 26.16120 55.78984 35776 ft 453 kts 341°
2026-05-06 15:41 26.19027 55.77827 35799 ft 438 kts 325°
2026-05-06 15:41 26.21515 55.75927 35787 ft 429 kts 313°
2026-05-06 15:41 26.25336 55.70922 35791 ft 424 kts 304°
2026-05-06 15:42 26.28957 55.65754 35784 ft 426 kts 304°
2026-05-06 15:42 26.32666 55.60566 35788 ft 428 kts 304°
2026-05-06 15:43 26.36407 55.55381 35785 ft 429 kts 304°
2026-05-06 15:43 26.40129 55.50225 35784 ft 430 kts 304°
2026-05-06 15:44 26.43892 55.45035 35787 ft 430 kts 304°
2026-05-06 15:44 26.47652 55.39844 35788 ft 429 kts 304°
2026-05-06 15:45 26.51406 55.34651 35794 ft 428 kts 304°
2026-05-06 15:45 26.55124 55.29500 35795 ft 428 kts 304°
2026-05-06 15:46 26.58849 55.24327 35796 ft 427 kts 304°
2026-05-06 15:46 26.62570 55.19153 35793 ft 426 kts 304°
2026-05-06 15:47 26.66277 55.13994 35796 ft 425 kts 304°
2026-05-06 15:47 26.69977 55.08837 35807 ft 424 kts 304°
2026-05-06 15:48 26.73649 55.03712 35808 ft 424 kts 304°
2026-05-06 15:48 26.77334 54.98566 35822 ft 424 kts 304°
2026-05-06 15:49 26.81013 54.93415 35828 ft 423 kts 303°
2026-05-06 15:49 26.84678 54.88259 35835 ft 423 kts 303°
2026-05-06 15:50 26.88343 54.83094 35832 ft 423 kts 303°
2026-05-06 15:50 26.91982 54.77962 35845 ft 423 kts 303°
2026-05-06 15:51 26.95658 54.72770 35857 ft 424 kts 303°
2026-05-06 15:51 26.99333 54.67575 35861 ft 424 kts 303°
2026-05-06 15:52 27.02977 54.62419 35849 ft 424 kts 303°
2026-05-06 15:52 27.06647 54.57220 35874 ft 423 kts 303°
2026-05-06 15:53 27.10311 54.52023 35885 ft 424 kts 303°
2026-05-06 15:53 27.13950 54.46855 35873 ft 424 kts 303°
2026-05-06 15:54 27.17608 54.41653 35873 ft 425 kts 302°
2026-05-06 15:54 27.21281 54.36425 35888 ft 425 kts 302°
2026-05-06 15:55 27.24951 54.31196 35882 ft 425 kts 302°
2026-05-06 15:55 27.28589 54.26005 35888 ft 425 kts 302°
2026-05-06 15:56 27.32250 54.20776 35886 ft 424 kts 302°
2026-05-06 15:56 27.35896 54.15560 35887 ft 424 kts 302°
2026-05-06 15:57 27.39540 54.10342 35882 ft 424 kts 302°
2026-05-06 15:57 27.43185 54.05116 35888 ft 424 kts 302°
2026-05-06 15:58 27.46800 53.99926 35882 ft 424 kts 302°
2026-05-06 15:58 27.50443 53.94690 35883 ft 424 kts 302°
2026-05-06 15:59 27.54337 53.89641 35886 ft 432 kts 310°
2026-05-06 15:59 27.59342 53.85672 35899 ft 447 kts 322°
2026-05-06 16:00 27.64758 53.82289 35880 ft 446 kts 323°
2026-05-06 16:00 27.70172 53.78923 35881 ft 442 kts 323°
2026-05-06 16:01 27.75530 53.75545 35880 ft 440 kts 322°
2026-05-06 16:01 27.80858 53.72160 35891 ft 438 kts 322°
2026-05-06 16:02 27.86159 53.68784 35903 ft 437 kts 322°
2026-05-06 16:02 27.91460 53.65403 35890 ft 437 kts 322°
2026-05-06 16:03 27.96732 53.62038 35888 ft 439 kts 322°